Weather Roundup
Issued by NWS

Home | Current Version | Previous Version | Text Only | Print | Product List | Glossary On
Versions: 1 2 3 4 5 6 7 8 9 10 11 12 13 14 15 16 17 18 19 20 21 22 23 24 25 26 27 28 29 30 31 32 33 34 35 36 37 38 39 40 41 42 43 44 45 46 47 48 49 50
237
NZUS93 KARX 230810
HRRWXR

CURRENT HOURLY OBSERVATIONS ACROSS
MUCH OF THE UPPER MISSISSIPPI VALLEY
NATIONAL WEATHER SERVICE LA CROSSE WI
300 AM CDT SUN APR 23 2017


...SOUTHEAST MINNESOTA...


CITY           SKY/WX    TMP DP  RH WIND       PRES   REMARKS
ROCHESTER      CLEAR     46  36  68 SW13      30.11F
ROCHESTER/MAYO FAIR      52  34  50 SW12      30.10F
WINONA         CLEAR     45  41  87 CALM      30.09F
AUSTIN         CLEAR     46  36  66 SW5       30.11F
ALBERT LEA     CLEAR     48  36  61 SW6       30.11F
DODGE CENTER   CLEAR     45  37  76 SW8       30.10F
PRESTON        CLEAR     45  33  61 SW9       30.12F
OWATONNA       CLEAR     46  36  66 S9        30.10F
FARIBAULT      PTCLDY    48  39  71 CALM      30.09F
$$

...ELSEWHERE IN MINNESOTA...


CITY           SKY/WX    TMP DP  RH WIND       PRES   REMARKS
MINNEAPOLIS    CLEAR     53  35  50 SW5       30.07S
INTNL FALLS    CLOUDY    32  22  66 NE12      30.20R WCI  23
DULUTH         LGT RAIN  41  38  89 N10       30.10R
RED WING       CLEAR     43  37  81 CALM      30.07F
REDWOOD FALLS  CLEAR     52  36  54 SW10      30.09S
MANKATO        CLEAR     52  36  54 W7        30.10F
WORTHINGTON    CLEAR     50  33  52 SW9       30.13F
FAIRMONT       CLEAR     49  37  63 W8        30.12F
$$

...SOUTHWEST WISCONSIN...


CITY           SKY/WX    TMP DP  RH WIND       PRES   REMARKS
LA CROSSE      CLEAR     48  41  76 SE9       30.10F
PRAIRIE DU CHI CLEAR     39  33  77 CALM      30.13S
BOSCOBEL       CLEAR     36  33  89 CALM      30.13F
LONE ROCK      CLEAR     37  33  85 CALM      30.13S
PLATTEVILLE    CLEAR     48  31  52 CALM      30.13F
FORT MC COY    CLEAR     32  29  91 CALM      30.11F
CAMP DOUGLAS   CLEAR     36  30  79 CALM      30.09F
MAUSTON-NEW LI SUNNY     41  36  82 CALM      30.08F
VIROQUA        FAIR      47  28  47 SW5       30.12S
WIS DELLS      CLEAR     39  31  72 S3        30.11S
$$

...ELSEWHERE IN WISCONSIN...


CITY           SKY/WX    TMP DP  RH WIND       PRES   REMARKS
MILWAUKEE      CLEAR     43  28  55 CALM      30.11F
MADISON        CLEAR     38  34  85 CALM      30.12S
GREEN BAY      CLEAR     48  36  63 S5        30.06F
EAU CLAIRE     CLEAR     44  38  79 SW5       30.05F
BLACK RVR FLS  FAIR      33  33 100 S3        30.08F
MEDFORD        CLOUDY    48  33  56 SW7       30.04F
WAUSAU         CLOUDY    51  31  46 SW6       30.03F
WIS RAPIDS     CLEAR     40  33  76 SW5       30.08F
MARSHFIELD     PTCLDY    48  30  49 SW6       30.06F
RICE LAKE      CLOUDY    50  34  53 SW5       30.05F
$$

...NORTHEAST IOWA...


CITY           SKY/WX    TMP DP  RH WIND       PRES   REMARKS
WATERLOO       CLEAR     39  34  82 CALM      30.14S
DUBUQUE        CLEAR     42  31  64 S3        30.13F
DECORAH        CLEAR     48  30  49 CALM      30.12S
MASON CITY     CLEAR     50  32  50 SW9       30.14F
CHARLES CITY   CLEAR     48  32  53 W6        30.14S
OELWEIN        CLEAR     45  36  70 CALM      30.14S
$$

...ELSEWHERE IN IOWA...


CITY           SKY/WX    TMP DP  RH WIND       PRES   REMARKS
DES MOINES     CLEAR     47  32  56 W3        30.16F
IOWA CITY      CLEAR     39  33  79 CALM      30.16S
FORT DODGE     CLEAR     43  34  70 CALM      30.16S
MARSHALLTOWN   CLEAR     43  34  70 CALM      30.14F
CEDAR RAPIDS   CLEAR     43  30  60 W3        30.14S
$$

...NORTHERN ILLINOIS...


CITY           SKY/WX    TMP DP  RH WIND       PRES   REMARKS
CHICAGO-OHARE  CLEAR     40  29  64 CALM      30.12F
CHICAGO-MIDWAY CLEAR     43  31  62 NW6       30.13F
MOLINE         PTCLDY    39  34  82 CALM      30.14S
ROCKFORD       CLEAR     39  32  76 CALM      30.15S
PEORIA         CLEAR     40  30  67 CALM      30.12F
$$

NOTE: "FAIR" INDICATES FEW OR NO CLOUDS BELOW 12,000 FEET WITH NO
SIGNIFICANT WEATHER AND/OR OBSTRUCTIONS TO VISIBILITY. WIND
SPEEDS ARE IN MILES-PER-HOUR.




USA.gov is the U.S. government's official web portal to all federal, state and local government web resources and services.